TimeCST,TemperatureF,Dew PointF,Humidity,Sea Level PressureIn,VisibilityMPH,Wind Direction,Wind SpeedMPH,Gust SpeedMPH,PrecipitationIn,Events,Conditions,WindDirDegrees,DateUTC
12:15 AM,51.6,46.6,83,30.12,10.0,Calm,Calm,-,N/A,,Clear,0,2012-11-06 06:15:00
12:35 AM,50.2,44.6,81,30.12,10.0,Calm,Calm,-,N/A,,Clear,0,2012-11-06 06:35:00
12:55 AM,46.8,43.0,87,30.12,10.0,NNW,3.5,-,N/A,,Clear,340,2012-11-06 06:55:00
1:15 AM,48.9,43.3,81,30.13,10.0,Calm,Calm,-,N/A,,Clear,0,2012-11-06 07:15:00
1:35 AM,48.0,43.3,84,30.12,10.0,Calm,Calm,-,N/A,,Clear,0,2012-11-06 07:35:00
1:55 AM,48.6,43.7,83,30.12,10.0,Calm,Calm,-,N/A,,Clear,0,2012-11-06 07:55:00
2:15 AM,47.7,44.4,89,30.12,10.0,Calm,Calm,-,N/A,,Clear,0,2012-11-06 08:15:00
2:35 AM,45.1,42.8,91,30.12,10.0,Calm,Calm,-,N/A,,Clear,0,2012-11-06 08:35:00
2:55 AM,43.5,43.0,98,30.12,10.0,Calm,Calm,-,N/A,,Clear,0,2012-11-06 08:55:00
3:15 AM,44.6,44.2,99,30.12,10.0,Calm,Calm,-,N/A,,Clear,0,2012-11-06 09:15:00
3:35 AM,45.3,44.1,95,30.11,10.0,Calm,Calm,-,N/A,,Clear,0,2012-11-06 09:35:00
3:55 AM,46.0,43.0,89,30.11,10.0,Calm,Calm,-,N/A,,Clear,0,2012-11-06 09:55:00
4:15 AM,44.8,42.1,90,30.11,10.0,Calm,Calm,-,N/A,,Clear,0,2012-11-06 10:15:00
4:35 AM,43.0,41.0,93,30.11,10.0,NW,3.5,-,N/A,,Clear,320,2012-11-06 10:35:00
4:55 AM,43.2,41.0,92,30.12,10.0,Calm,Calm,-,N/A,,Clear,0,2012-11-06 10:55:00
5:15 AM,43.5,40.6,90,30.13,10.0,Calm,Calm,-,N/A,,Clear,0,2012-11-06 11:15:00
5:35 AM,42.6,39.7,90,30.13,10.0,WNW,3.5,-,N/A,,Clear,300,2012-11-06 11:35:00
5:55 AM,43.0,39.4,87,30.13,10.0,West,3.5,-,N/A,,Clear,280,2012-11-06 11:55:00
6:15 AM,42.8,40.6,92,30.13,10.0,Calm,Calm,-,N/A,,Clear,0,2012-11-06 12:15:00
6:35 AM,42.1,40.3,93,30.14,10.0,Calm,Calm,-,N/A,,Clear,0,2012-11-06 12:35:00
6:55 AM,41.5,40.6,97,30.16,10.0,Calm,Calm,-,N/A,,Clear,0,2012-11-06 12:55:00
7:15 AM,41.2,40.1,96,30.16,10.0,Calm,Calm,-,N/A,,Clear,0,2012-11-06 13:15:00
7:35 AM,42.3,39.6,90,30.17,10.0,Calm,Calm,-,N/A,,Clear,0,2012-11-06 13:35:00
7:55 AM,44.4,40.8,87,30.18,10.0,Calm,Calm,-,N/A,,Clear,0,2012-11-06 13:55:00
8:15 AM,46.4,41.5,83,30.20,10.0,Calm,Calm,-,N/A,,Clear,0,2012-11-06 14:15:00
8:35 AM,48.6,42.8,80,30.20,10.0,Calm,Calm,-,N/A,,Clear,0,2012-11-06 14:35:00
8:55 AM,51.4,44.6,77,30.20,10.0,SSW,3.5,-,N/A,,Clear,210,2012-11-06 14:55:00
9:15 AM,54.7,44.8,69,30.21,10.0,Calm,Calm,-,N/A,,Clear,0,2012-11-06 15:15:00
9:35 AM,57.2,42.8,59,30.21,10.0,Calm,Calm,-,N/A,,Clear,0,2012-11-06 15:35:00
9:55 AM,59.2,42.1,53,30.21,10.0,South,3.5,-,N/A,,Clear,170,2012-11-06 15:55:00
10:15 AM,62.1,41.0,46,30.21,10.0,Calm,Calm,-,N/A,,Clear,0,2012-11-06 16:15:00
10:35 AM,64.0,41.5,44,30.21,10.0,ESE,3.5,-,N/A,,Clear,110,2012-11-06 16:35:00
10:55 AM,66.0,42.4,42,30.20,10.0,South,3.5,-,N/A,,Clear,170,2012-11-06 16:55:00
11:15 AM,66.6,43.7,44,30.20,10.0,Calm,Calm,-,N/A,,Clear,0,2012-11-06 17:15:00
11:35 AM,68.0,43.5,41,30.19,10.0,Calm,Calm,-,N/A,,Clear,0,2012-11-06 17:35:00
11:55 AM,70.2,43.5,38,30.18,10.0,SW,4.6,-,N/A,,Clear,230,2012-11-06 17:55:00
12:15 PM,72.1,45.0,38,30.17,10.0,SW,3.5,-,N/A,,Clear,230,2012-11-06 18:15:00
12:35 PM,72.7,44.4,36,30.16,10.0,SSW,5.8,-,N/A,,Clear,200,2012-11-06 18:35:00
12:55 PM,73.6,42.4,33,30.15,10.0,West,4.6,-,N/A,,Clear,280,2012-11-06 18:55:00
1:15 PM,73.9,42.4,32,30.14,10.0,WSW,4.6,-,N/A,,Clear,250,2012-11-06 19:15:00
1:35 PM,74.7,43.9,33,30.13,10.0,West,4.6,-,N/A,,Clear,270,2012-11-06 19:35:00
1:55 PM,75.2,44.4,33,30.12,10.0,SSW,5.8,-,N/A,,Clear,200,2012-11-06 19:55:00
2:15 PM,75.9,43.2,31,30.11,10.0,Calm,Calm,-,N/A,,Clear,0,2012-11-06 20:15:00
2:35 PM,76.3,43.2,31,30.11,10.0,SW,4.6,-,N/A,,Clear,230,2012-11-06 20:35:00
2:55 PM,77.0,43.9,31,30.11,10.0,WSW,3.5,-,N/A,,Clear,250,2012-11-06 20:55:00
3:15 PM,77.2,43.7,30,30.10,10.0,SSW,8.1,-,N/A,,Clear,210,2012-11-06 21:15:00
3:35 PM,77.5,44.1,30,30.10,10.0,South,5.8,-,N/A,,Clear,190,2012-11-06 21:35:00
3:55 PM,77.5,44.1,30,30.09,10.0,SSW,5.8,-,N/A,,Clear,210,2012-11-06 21:55:00
4:15 PM,77.2,44.4,31,30.09,10.0,SSW,6.9,-,N/A,,Clear,210,2012-11-06 22:15:00
4:35 PM,77.0,44.4,31,30.10,10.0,South,6.9,-,N/A,,Clear,190,2012-11-06 22:35:00
4:55 PM,76.1,45.3,33,30.09,10.0,South,3.5,-,N/A,,Clear,180,2012-11-06 22:55:00
5:15 PM,75.2,44.6,34,30.10,10.0,Calm,Calm,-,N/A,,Clear,0,2012-11-06 23:15:00
5:35 PM,73.8,43.9,34,30.10,10.0,SE,3.5,-,N/A,,Clear,130,2012-11-06 23:35:00
5:55 PM,71.8,43.3,36,30.11,10.0,South,3.5,-,N/A,,Clear,180,2012-11-06 23:55:00
6:15 PM,70.2,43.3,38,30.11,10.0,South,3.5,-,N/A,,Clear,180,2012-11-07 00:15:00
6:35 PM,65.7,43.9,45,30.12,10.0,Calm,Calm,-,N/A,,Clear,0,2012-11-07 00:35:00
6:55 PM,59.7,44.8,58,30.12,10.0,Calm,Calm,-,N/A,,Clear,0,2012-11-07 00:55:00
7:15 PM,58.1,46.8,66,30.13,10.0,WNW,3.5,-,N/A,,Clear,290,2012-11-07 01:15:00
7:35 PM,57.2,47.1,69,30.14,10.0,NW,3.5,-,N/A,,Clear,320,2012-11-07 01:35:00
7:55 PM,56.8,45.9,67,30.14,10.0,NW,3.5,-,N/A,,Clear,320,2012-11-07 01:55:00
8:15 PM,55.8,45.5,68,30.14,10.0,Calm,Calm,-,N/A,,Clear,0,2012-11-07 02:15:00
8:35 PM,52.9,44.8,74,30.14,10.0,NW,3.5,-,N/A,,Clear,320,2012-11-07 02:35:00
8:55 PM,51.6,44.6,77,30.15,10.0,NNW,3.5,-,N/A,,Clear,330,2012-11-07 02:55:00
9:15 PM,51.6,44.6,77,30.15,10.0,Calm,Calm,-,N/A,,Clear,0,2012-11-07 03:15:00
9:35 PM,51.3,43.9,76,30.16,10.0,NW,3.5,-,N/A,,Clear,320,2012-11-07 03:35:00
9:55 PM,51.1,43.3,75,30.16,10.0,NW,3.5,-,N/A,,Clear,320,2012-11-07 03:55:00
10:15 PM,49.6,43.0,78,30.16,10.0,NW,3.5,-,N/A,,Clear,320,2012-11-07 04:15:00
10:35 PM,49.5,43.0,78,30.16,10.0,Calm,Calm,-,N/A,,Clear,0,2012-11-07 04:35:00
10:55 PM,50.0,42.8,76,30.17,10.0,NW,3.5,-,N/A,,Clear,320,2012-11-07 04:55:00
11:15 PM,49.1,42.8,79,30.17,10.0,Calm,Calm,-,N/A,,Clear,0,2012-11-07 05:15:00
11:35 PM,50.0,42.8,76,30.17,10.0,Calm,Calm,-,N/A,,Clear,0,2012-11-07 05:35:00
11:55 PM,48.2,42.3,80,30.17,10.0,Calm,Calm,-,N/A,,Clear,0,2012-11-07 05:55:00